Location: Unspecified
(0.0000°N, 0.0000°E)
Time: 16:31:29
(UTC+00:00)

Envisat - Pass Details

Date: 19 January 2020
Orbit: 764 x 766 km, 98.1° (Epoch: 24 February)

Event Time Altitude Azimuth Distance (km) Brightness Sun altitude
Rises 19:18:05 0° 200° (SSW) 3,230 6.9 -15.8°
Reaches altitude 10° 19:21:15 10° 220° (SW) 2,302 6.4 -16.5°
Maximum altitude 19:24:17 16° 257° (WSW) 1,913 6.2 -17.2°
Drops below altitude 10° 19:27:18 10° 295° (WNW) 2,296 6.1 -17.9°
Sets 19:30:29 0° 316° (NW) 3,219 6.5 -18.7°
